Dewpoint
57 57 57 58 58 58 58 57 55 51 51 53 53 53 53 52 51 51 49 49 49 48 47 46 47 47 47 47 47 47 47 48 48 49 51 54 55 58
58 58 58 58 58 58 58 57 57 55 51 53 50 50 48 49 47 46 47 47 46 45 44 45 45 45 44 45 45 45 45 46 46 48 49 51 53 55
53 54 54 53 54 52 51 52 50 50 52 49 48 47 45 41 42 42 44 41 42 42 42 40 39 38 37 39 42 44 45 45 45 45 45 46 48 51
47 47 46 46 45 45 44 43 43 43 45 44 43 41 41 39 38 39 38 39 37 37 37 37 37 37 39 41 39 40 41 42 41 42 43 44 46 47
42 42 42 42 41 41 40 40 40 40 40 39 37 39 39 37 34 35 34 35 35 35 35 36 38 36 36 35 37 39 39 40 41 42 43 43 45 46
40 40 40 39 38 36 35 35 35 34 34 33 33 34 34 34 33 32 31 33 32 33 34 36 34 35 36 37 37 37 38 40 40 41 41 42 43 44
38 38 38 38 37 35 33 33 32 31 30 30 30 30 30 30 30 31 30 31 31 33 33 33 34 35 35 36 36 37 39 39 39 40 41 41 42 43
33 32 32 32 33 33 32 31 31 30 29 30 29 29 29 29 30 29 29 29 28 32 33 32 34 34 34 35 36 37 38 38 39 39 39 40 41 41
32 32 32 32 31 30 31 30 30 30 30 30 28 28 29 29 29 29 30 31 31 31 32 30 32 32 33 35 35 36 38 39 38 38 39 38 40 41
29 30 30 31 32 30 29 28 28 28 29 29 29 29 29 29 28 30 32 32 32 32 32 27 31 32 34 33 34 36 38 36 36 37 37 38 41 42
28 29 29 30 31 32 28 27 26 27 29 29 28 28 28 28 27 29 27 27 25 26 30 32 32 31 31 31 33 36 35 36 36 35 37 41 42 43
26 28 31 30 31 31 28 26 26 27 27 24 24 25 27 27 26 25 25 25 26 26 32 29 30 30 28 32 33 32 33 34 34 34 36 38 39 37
27 27 27 31 31 30 29 26 27 27 25 23 23 24 25 25 24 25 27 28 27 26 29 31 30 30 29 29 31 30 33 31 31 32 34 35 37 37
29 28 28 31 30 30 27 27 28 25 23 23 23 23 24 24 24 26 27 29 30 29 30 32 29 29 28 26 25 29 31 30 30 30 32 32 33 33
29 30 30 30 30 28 27 26 26 23 22 23 23 24 23 23 25 25 26 26 28 31 31 33 31 30 28 26 25 27 28 28 29 30 29 29 29 29
29 28 29 29 28 27 25 25 25 23 23 23 22 21 21 21 22 23 23 23 24 25 27 28 29 29 26 26 27 26 27 26 27 27 28 28 26 27
29 28 26 25 25 24 24 23 23 22 21 23 22 21 22 22 22 22 22 21 22 23 24 26 26 28 28 27 25 27 26 26 26 27 27 25 24 24
28 26 25 24 24 24 24 23 22 22 21 21 21 21 21 21 21 22 20 20 21 22 23 25 26 25 23 24 28 27 25 25 25 27 27 24 22 23
27 26 24 23 24 24 24 22 22 21 21 21 20 19 20 20 19 19 19 20 20 21 22 24 26 24 21 20 22 29 26 25 25 26 27 26 25 26
26 25 23 23 22 24 23 22 22 21 20 21 20 19 18 18 18 18 18 19 20 22 22 22 25 25 22 22 23 25 27 26 25 25 26 27 27 29
25 24 24 23 22 22 22 22 22 22 22 22 18 18 18 18 18 18 19 20 21 20 20 20 23 29 29 25 23 23 26 30 29 25 26 26 26 27
26 24 24 23 23 24 24 23 23 22 20 19 19 19 18 18 18 18 18 19 19 20 20 21 24 26 25 23 22 23 25 27 29 31 32 31 26 24
25 24 24 24 23 24 24 24 23 21 20 20 20 19 18 17 18 18 19 19 19 19 20 21 23 25 25 24 24 24 25 26 28 29 30 33 32 31
Wind_Speed
8 9 10 8 9 12 13 12 13 16 13 5 7 8 9 11 12 11 10 10 9 9 10 11 11 12 14 16 17 18 19 19 21 24 25 25 26 26
6 7 8 8 11 11 11 11 14 16 18 5 2 4 9 10 15 12 11 11 10 11 10 10 11 12 15 17 18 19 21 22 21 21 22 24 27 28
5 3 3 4 1 3 4 1 2 2 14 1 4 7 6 11 10 9 8 9 8 11 11 13 15 16 18 18 19 20 20 21 21 23 24 24 25 27
8 10 10 10 11 12 11 12 9 9 3 3 6 9 8 8 9 7 8 8 12 12 15 15 15 16 16 16 20 20 22 22 23 24 24 24 24 26
11 11 10 12 13 11 10 8 8 7 5 4 3 5 1 8 9 6 9 10 9 13 14 12 12 16 19 20 20 20 22 22 23 23 23 23 25 27
12 11 11 11 11 12 11 7 6 8 7 7 4 4 4 4 6 11 13 9 16 11 10 9 17 18 18 19 20 20 20 20 23 24 24 24 25 27
13 13 14 15 14 15 10 8 9 10 9 8 6 5 5 8 10 7 9 13 15 5 7 14 15 17 14 16 17 18 22 23 24 24 24 25 26 26
13 12 12 12 12 16 14 12 10 7 6 3 3 4 4 6 5 8 12 12 10 3 16 22 12 18 16 15 19 24 23 21 19 20 24 25 25 26
10 10 9 8 10 10 10 9 8 8 7 3 2 4 5 4 9 10 9 9 10 14 13 15 14 15 15 15 22 23 17 18 19 21 23 26 26 26
8 9 9 7 6 7 7 7 7 5 5 4 3 6 8 10 8 9 12 12 11 12 8 13 13 16 15 18 20 16 14 20 21 24 26 27 28 29
5 7 7 5 6 7 7 6 5 5 5 7 9 8 9 10 10 8 10 12 14 15 10 5 7 17 16 19 11 11 22 19 19 25 24 16 21 11
5 4 3 3 4 5 5 3 4 3 4 8 10 9 8 8 10 9 10 11 12 8 2 11 12 9 8 6 10 16 14 16 21 18 19 19 16 9
5 4 1 1 4 4 4 3 4 4 7 8 9 9 7 7 9 11 11 10 11 12 14 11 7 12 6 10 11 14 11 14 11 13 15 14 14 11
3 2 1 2 3 2 1 3 5 5 7 8 8 8 9 11 13 13 13 12 12 16 17 14 8 10 11 15 12 11 15 15 7 10 11 10 9 9
3 2 2 3 3 3 2 2 4 5 7 8 9 7 10 12 12 11 10 13 14 14 14 12 12 13 10 11 14 15 19 10 11 10 9 9 7 7
4 2 1 3 5 2 0 2 1 3 5 6 7 11 8 13 12 12 15 13 14 12 11 11 12 11 11 13 13 15 13 9 13 14 11 12 8 9
5 4 1 4 5 6 3 2 1 3 4 5 9 12 12 13 12 12 8 14 10 13 14 16 14 12 14 16 13 10 12 14 12 12 8 12 11 10
4 5 4 5 5 7 5 3 3 4 6 7 9 10 12 12 13 11 12 11 12 14 16 16 16 12 5 7 14 9 9 8 10 12 6 8 10 12
7 6 5 3 4 6 6 5 5 5 6 8 9 11 12 13 14 14 14 12 13 14 15 15 13 10 14 14 5 5 6 8 10 11 6 6 7 16
6 7 7 7 5 6 7 7 6 7 8 8 10 12 13 12 13 13 13 13 14 14 15 14 12 12 9 8 5 4 6 8 7 9 6 6 9 11
10 10 9 8 5 6 8 8 8 8 9 9 10 13 13 12 12 12 13 16 16 13 16 15 14 19 7 2 5 6 5 7 5 6 6 6 7 10
12 11 11 11 8 9 9 9 9 10 13 14 15 13 13 11 12 13 12 13 13 14 16 16 16 11 3 3 7 7 5 5 3 1 4 4 3 6
14 13 12 10 9 10 11 11 12 13 13 13 13 13 11 12 11 12 12 12 14 15 14 16 14 6 5 4 5 4 3 5 4 1 6 6 6 11
Wind_Direction
219 236 241 242 238 240 239 233 258 277 275 229 206 50 56 69 47 49 50 23 22 16 4 351 344 328 320 313 310 308 306 306 303 296 292 291 284 279
230 232 240 243 242 243 238 248 249 258 275 213 125 113 61 58 34 25 18 12 11 360 351 347 335 328 320 313 309 308 305 298 299 302 301 295 292 286
28 352 351 2 301 37 1 323 137 266 255 133 86 36 59 41 29 14 8 355 359 355 346 334 327 323 321 316 317 315 310 305 301 304 302 300 296 293
68 82 70 68 57 55 62 52 40 24 49 121 47 34 38 32 10 12 2 359 354 336 330 325 325 324 322 323 321 316 312 306 307 303 302 301 299 299
70 76 82 90 73 61 59 46 57 36 20 47 22 31 2 27 357 349 348 349 333 324 324 325 336 330 320 316 312 311 308 310 306 305 301 298 299 297
73 74 69 70 93 93 66 45 49 63 35 46 43 21 24 352 2 354 338 341 330 323 321 331 325 319 320 320 314 308 309 308 310 309 305 300 301 298
75 74 73 76 75 80 79 53 46 47 33 31 28 14 5 359 351 327 325 324 317 265 331 330 328 320 315 317 311 311 316 314 313 311 308 302 300 297
96 83 72 65 63 65 62 55 56 64 60 52 24 353 321 324 305 317 320 324 336 14 348 322 324 311 314 310 309 314 315 317 320 317 317 311 304 296
106 107 97 83 76 70 62 57 48 49 57 90 22 322 297 287 326 313 306 306 296 298 306 310 314 303 299 302 311 317 320 330 328 324 322 316 305 297
115 128 120 107 104 99 76 65 57 59 35 46 28 335 318 319 319 318 326 320 304 288 296 299 299 303 312 310 306 318 328 335 333 329 323 316 301 291
114 127 114 83 47 82 67 56 47 40 35 30 3 348 339 339 336 355 344 332 319 315 299 275 310 314 304 293 298 323 325 323 329 330 328 338 356 355
108 117 113 78 33 45 87 65 37 41 21 2 0 356 357 351 351 340 319 311 315 310 29 342 314 334 313 292 326 314 317 318 332 328 324 345 3 12
154 152 178 54 28 22 90 28 9 84 8 359 352 348 339 336 336 325 311 296 293 280 290 307 293 307 264 304 307 302 303 319 316 316 326 326 341 0
180 186 247 309 342 1 53 5 34 32 4 351 346 342 343 335 324 315 309 295 269 267 280 281 277 277 280 294 292 312 318 316 305 314 316 318 327 332
161 206 307 342 3 342 319 20 57 22 351 343 342 338 330 312 309 309 303 304 293 282 278 264 269 274 260 272 290 305 324 314 304 307 310 314 313 311
184 153 54 18 4 343 48 32 75 19 347 336 337 327 309 326 326 320 327 330 318 310 291 268 272 265 276 270 278 294 304 308 311 318 308 300 301 298
202 202 224 312 321 327 305 313 244 292 322 330 328 327 321 321 318 313 322 328 315 316 314 309 303 265 257 263 278 271 300 299 295 309 309 318 312 309
239 245 272 301 305 305 273 279 278 318 321 317 312 315 320 320 318 321 330 325 316 315 312 312 308 319 308 283 230 275 299 294 305 308 307 317 320 324
245 233 260 293 284 288 257 246 278 292 303 302 305 309 312 316 319 313 311 309 311 304 302 306 304 302 310 312 282 243 297 307 311 306 317 324 300 311
222 226 239 233 258 272 261 271 275 288 297 294 297 304 309 312 314 309 308 305 301 306 312 311 303 304 297 293 304 284 283 293 307 306 319 312 283 289
241 242 228 222 228 252 261 269 269 274 280 276 293 302 303 305 301 297 293 306 312 310 307 305 300 312 313 293 299 294 306 329 265 292 319 343 356 342
237 235 227 220 226 238 244 246 253 266 273 279 289 291 292 289 292 292 292 298 300 296 294 294 299 307 299 265 297 294 305 321 337 70 351 347 348 345
232 234 233 229 237 242 240 240 247 254 258 266 271 274 279 291 287 284 287 288 289 293 296 304 308 302 274 269 290 280 294 307 313 344 38 59 69 77